GW3529 Weather Reports


time (UTC)temp
C
wind
direction
speed
KPH
gust
KPH
rain 1hr
cm
rain 24hr
cm
rain mn
cm
humidity
%
barometer
mb
20260506150104 7 344 3.2 27.4 0.00 0.00 0.00 33 1020.3
20260506144611 6 316 14.5 29.0 0.00 0.03 0.00 34 1020.5
20260506143056 6 329 12.9 29.0 0.00 0.03 0.00 35 1020.5
20260506141553 6 334 6.4 24.1 0.00 0.03 0.00 37 1020.4
20260506140105 5 344 9.7 24.1 0.00 0.03 0.00 38 1020.6
20260506134546 5 302 1.6 20.9 0.00 0.03 0.00 41 1020.7
20260506133051 3 338 4.8 17.7 0.00 0.03 0.00 46 1020.6
20260506131544 1 300 0.0 1.6 0.00 0.03 0.00 54 1020.7
20260506130039 0 302 0.0 0.0 0.00 0.03 0.00 57 1020.6
20260506124529 0 257 0.0 1.6 0.00 0.03 0.00 58 1020.5
20260506123036 -1 254 0.0 0.0 0.00 0.03 0.00 60 1020.4
20260506121523 -1 212 0.0 0.0 0.00 0.03 0.00 60 1020.4
20260506120030 -1 195 0.0 0.0 0.00 0.03 0.00 61 1020.4
20260506114620 -2 191 0.0 0.0 0.00 0.03 0.00 61 1020.4
20260506113053 -1 192 0.0 0.0 0.00 0.03 0.00 60 1020.2
20260506111548 -1 192 0.0 0.0 0.00 0.03 0.00 60 1020.0
20260506110048 -1 192 0.0 0.0 0.00 0.03 0.00 60 1020.0
20260506104555 -1 193 0.0 0.0 0.00 0.03 0.00 59 1019.9
20260506103045 -1 194 0.0 0.0 0.00 0.03 0.00 59 1020.0
20260506101543 -1 194 0.0 0.0 0.00 0.03 0.00 56 1019.9
20260506100053 0 194 0.0 0.0 0.00 0.03 0.00 57 1019.7
20260506094543 -1 194 0.0 0.0 0.00 0.03 0.00 58 1019.7
20260506093039 -1 194 0.0 0.0 0.00 0.03 0.00 57 1019.7
20260506091539 -1 194 0.0 0.0 0.00 0.03 0.00 58 1019.8
20260506090040 0 194 0.0 0.0 0.00 0.03 0.00 54 1019.6
20260506084538 0 194 0.0 0.0 0.00 0.03 0.00 56 1019.6
20260506083034 0 194 0.0 0.0 0.00 0.03 0.00 55 1019.5
20260506081531 0 240 0.0 0.0 0.00 0.03 0.00 55 1019.4
20260506073028 0 298 0.0 0.0 0.00 0.03 0.00 55 1019.4
20260506071527 0 298 0.0 0.0 0.00 0.03 0.00 55 1019.4
20260506061518 1 298 0.0 0.0 0.00 0.03 0.00 54 1019.2
20260506044510 2 346 0.0 8.0 0.00 0.05 0.03 48 1018.8
20260506043009 3 344 1.6 16.1 0.00 0.05 0.03 48 1018.8
20260506041509 3 355 0.0 12.9 0.00 0.05 0.03 48 1018.7
20260506040007 3 347 0.0 12.9 0.00 0.05 0.03 47 1018.6
20260506034507 3 325 0.0 19.3 0.00 0.05 0.03 47 1018.5
20260506033005 3 329 0.0 16.1 0.00 0.05 0.03 47 1018.5
20260506031503 3 344 1.6 27.4 0.00 0.05 0.03 46 1018.3
20260506030004 4 351 0.0 25.7 0.00 0.05 0.03 46 1018.1
20260506024602 4 345 0.0 6.4 0.00 0.05 0.03 45 1017.8
20260506023104 4 327 17.7 30.6 0.00 0.05 0.03 44 1017.5
20260506021555 4 331 3.2 25.7 0.00 0.05 0.03 46 1017.1
20260506020056 5 331 8.0 29.0 0.00 0.05 0.03 44 1016.8
20260506014552 5 360 11.3 29.0 0.00 0.05 0.03 45 1016.5
20260506013103 5 346 4.8 25.7 0.00 0.05 0.03 44 1016.2
20260506011547 5 341 9.7 24.1 0.00 0.05 0.03 47 1016.1
20260506010058 5 318 17.7 27.4 0.00 0.05 0.03 47 1015.9
20260506004544 5 333 6.4 25.7 0.00 0.05 0.03 48 1015.7
20260506003043 6 327 17.7 32.2 0.00 0.05 0.03 46 1015.5
20260506001548 6 323 19.3 33.8 0.00 0.05 0.03 45 1015.3
20260506000041 6 319 27.4 38.6 0.00 0.05 0.03 47 1015.3
20260505234541 6 331 25.7 33.8 0.00 0.05 0.03 48 1015.3
20260505233047 6 342 11.3 37.0 0.00 0.05 0.03 51 1015.3
20260505231540 6 355 25.7 40.2 0.00 0.05 0.03 50 1014.9
20260505230046 6 343 22.5 41.8 0.00 0.05 0.03 51 1014.9
20260505224543 6 355 17.7 45.1 0.00 0.05 0.03 56 1014.8
20260505223041 5 10 20.9 51.5 0.00 0.05 0.03 56 1014.9
20260505221537 7 346 27.4 45.1 0.00 0.05 0.03 47 1014.7
20260505220036 6 5 29.0 38.6 0.00 0.05 0.03 48 1014.4
20260505214538 7 9 30.6 43.5 0.00 0.05 0.03 43 1014.3
20260505213034 7 5 30.6 43.5 0.00 0.05 0.03 43 1014.5
20260505211535 7 345 20.9 40.2 0.00 0.05 0.03 42 1014.5
20260505210038 7 341 25.7 46.7 0.00 0.05 0.03 41 1014.4
20260505204635 7 340 20.9 41.8 0.00 0.05 0.03 42 1014.7
20260505203038 7 350 14.5 40.2 0.00 0.05 0.03 44 1014.6
20260505201547 7 344 22.5 48.3 0.00 0.05 0.03 42 1014.5
20260505200034 7 5 30.6 48.3 0.00 0.05 0.03 42 1014.4
20260505194535 7 355 29.0 46.7 0.00 0.05 0.03 41 1014.5
20260505193030 8 337 9.7 41.8 0.00 0.05 0.03 38 1014.5
20260505191532 8 5 25.7 40.2 0.00 0.05 0.03 40 1014.3
20260505190035 7 334 19.3 38.6 0.00 0.05 0.03 36 1014.4
20260505184528 7 345 24.1 45.1 0.00 0.05 0.03 40 1014.6
20260505183031 7 13 22.5 41.8 0.00 0.05 0.03 42 1014.6
20260505181532 7 360 25.7 41.8 0.00 0.05 0.03 43 1014.6
20260505180025 6 355 30.6 43.5 0.00 0.05 0.03 41 1014.8
20260505174525 6 360 27.4 43.5 0.00 0.05 0.03 40 1014.9
20260505173036 7 338 25.7 43.5 0.00 0.05 0.03 41 1014.8
20260505171533 7 319 32.2 49.9 0.00 0.05 0.03 37 1014.8
20260505170019 7 341 33.8 45.1 0.00 0.05 0.03 37 1015.0
20260505164515 6 360 29.0 46.7 0.00 0.05 0.03 40 1015.0
20260505163010 6 325 20.9 41.8 0.00 0.05 0.03 42 1015.0
20260505161507 6 344 19.3 41.8 0.00 0.05 0.03 41 1015.1
20260505153003 5 327 25.7 37.0 0.00 0.05 0.03 44 1015.3
20260505151501 4 360 20.9 38.6 0.03 0.05 0.03 50 1015.3